Weather History for EBLG - March, 2013

Change the Weather History Date:

Friday, March 15, 2013

  Actual Average Record
Temperature  
Mean Temperature 28 °F -  
Max Temperature 37 °F 52 °F 68 °F (2012)
Min Temperature 19 °F 38 °F 19 °F (2013)
Degree Days  
Heating Degree Days 37    
Moisture  
Dew Point 22 °F    
Average Humidity 73    
Maximum Humidity 93    
Minimum Humidity 44    
Precipitation  
Precipitation 0.00 in - - ()
Sea Level Pressure  
Sea Level Pressure 29.96 in    
Wind  
Wind Speed 9 mph ()    
Max Wind Speed 18 mph    
Max Gust Speed -    
Visibility 5.6 miles    
Events Rain , Snow    
Averages and records for this station are not official NWS values.
T = Trace of Precipitation, MM = Missing Value Source: Averaged Metar Reports

Daily Weather History Graph

Daily Weather History Graph

Search for Another Location

Airport or City:

Trip Planner

Search our weather history database for the weather conditions in past years. The results will help you decide how hot, cold, wet, or windy it might be!

Date:

Astronomy

Mar. 15, 2013 Rise Set
Actual Time 6:51 AM CET 6:43 PM CET
Civil Twilight 6:19 AM CET 7:15 PM CET
Nautical Twilight 5:41 AM CET 7:54 PM CET
Astronomical Twilight 5:01 AM CET 8:33 PM CET
Moon 8:06 AM CET (3/15) 11:11 PM CET (3/15)
Length of Visible Light 12h 56m
Length of Day
11h 51m
Waxing Crescent, 14% of the Moon is Illuminated
Mar 15
Waxing Crescent
Mar 19
First Quarter
Mar 27
Full
Apr 3
Last Quarter
Apr 10
New

Hourly Weather History & Observations

Time (CET) Temp. Windchill Dew Point Humidity Pressure Visibility Wind Dir Wind Speed Gust Speed Precip Events Conditions
12:20 AM 23.0 °F 18.4 °F 21.2 °F 93% 29.98 in - SW 3.5 mph - N/A   Clear
12:50 AM 23.0 °F 18.4 °F 19.4 °F 86% 29.95 in - South 3.5 mph - N/A   Clear
1:00 AM 23 °F - 20 °F 83% 30.02 in 7 mi South 2.2 mph - -  
1:20 AM 23.0 °F - 21.2 °F 93% 29.95 in - Variable 2.3 mph - N/A   Clear
1:50 AM 23.0 °F 17.0 °F 21.2 °F 93% 29.95 in 4.3 mi South 4.6 mph - N/A   Unknown
2:20 AM 23.0 °F 15.8 °F 21.2 °F 93% 29.95 in 2.2 mi South 5.8 mph - N/A   Mist
2:50 AM 23.0 °F 15.8 °F 21.2 °F 93% 29.95 in - SSE 5.8 mph - N/A   Mist
3:20 AM 21.2 °F 13.6 °F 19.4 °F 93% 29.95 in 2.5 mi South 5.8 mph - N/A   Mist
3:50 AM 21.2 °F 14.9 °F 19.4 °F 93% 29.95 in 2.5 mi South 4.6 mph - N/A   Mist
4:00 AM 22 °F - 19 °F 84% 30.01 in 2 mi South 4.5 mph - -   Mist
4:20 AM 21.2 °F 12.6 °F 19.4 °F 93% 29.95 in 2.5 mi South 6.9 mph - N/A   Mist
4:50 AM 23.0 °F 15.8 °F 19.4 °F 86% 29.95 in 2.5 mi SSE 5.8 mph - N/A   Mist
5:20 AM 21.2 °F 12.6 °F 17.6 °F 86% 29.95 in 2.5 mi SSE 6.9 mph - N/A   Mist
5:50 AM 19.4 °F 8.6 °F 17.6 °F 93% 29.95 in 2.5 mi SE 9.2 mph - N/A   Mist
6:20 AM 19.4 °F 8.6 °F 15.8 °F 86% 29.95 in 2.5 mi SSE 9.2 mph - N/A   Mist
6:50 AM 21.2 °F 9.5 °F 17.6 °F 86% 29.98 in 2.5 mi SSE 11.5 mph - N/A   Mist
7:00 AM 21 °F - 17 °F 78% 30.03 in 2 mi SSE 11.2 mph - -   Mist
7:20 AM 21.2 °F 9.5 °F 17.6 °F 86% 29.98 in 2.5 mi SSE 11.5 mph - N/A   Mist
7:50 AM 21.2 °F 9.5 °F 17.6 °F 86% 29.98 in 3.1 mi SSE 11.5 mph - N/A   Mist
8:20 AM 23.0 °F 11.7 °F 17.6 °F 80% 29.98 in 3.1 mi SSE 11.5 mph - N/A   Mist
8:50 AM 24.8 °F 15.3 °F 19.4 °F 80% 29.98 in 3.7 mi SSE 9.2 mph - N/A   Mostly Cloudy
9:20 AM 26.6 °F 16.2 °F 21.2 °F 80% 29.98 in 4.3 mi South 11.5 mph - N/A   Mostly Cloudy
9:50 AM 28.4 °F 19.1 °F 21.2 °F 74% 29.98 in 5.6 mi South 10.4 mph - N/A   Mostly Cloudy
10:00 AM 29 °F - 21 °F 60% 30.03 in 6 mi South 11.2 mph - -   Mostly Cloudy
10:20 AM 28.4 °F 18.0 °F 21.2 °F 74% 29.98 in 5.6 mi South 12.7 mph - N/A   Mostly Cloudy
10:50 AM 30.2 °F 20.2 °F 21.2 °F 69% 29.98 in 6.2 mi SSW 12.7 mph - N/A   Scattered Clouds
11:20 AM 32.0 °F 23.0 °F 23.0 °F 69% 29.98 in 6.2 mi South 11.5 mph - N/A   Partly Cloudy
11:50 AM 33.8 °F 23.9 °F 23.0 °F 65% 29.98 in 6.2 mi SW 15.0 mph - N/A   Scattered Clouds
12:20 PM 33.8 °F 23.9 °F 24.8 °F 70% 29.98 in 6.2 mi SSW 15.0 mph - N/A   Scattered Clouds
12:50 PM 33.8 °F 23.5 °F 24.8 °F 70% 29.98 in 6.2 mi SW 16.1 mph - N/A   Mostly Cloudy
1:00 PM 34 °F - 25 °F 59% 30.01 in 10 mi SW 15.7 mph - -   Mostly Cloudy
1:20 PM 33.8 °F 23.2 °F 24.8 °F 70% 29.98 in 6.2 mi SSW 17.3 mph - N/A   Mostly Cloudy
1:50 PM 35.6 °F 26.2 °F 24.8 °F 65% 29.95 in 6.2 mi SW 15.0 mph - N/A   Scattered Clouds
2:20 PM 35.6 °F 26.2 °F 24.8 °F 65% 29.95 in 6.2 mi SW 15.0 mph - N/A   Scattered Clouds
2:50 PM 35.6 °F 25.9 °F 24.8 °F 65% 29.95 in 6.2 mi SW 16.1 mph - N/A Rain , Snow Light Rain
3:20 PM 37.4 °F 28.2 °F 23.0 °F 56% 29.95 in 6.2 mi SSW 16.1 mph - N/A   Scattered Clouds
3:50 PM 37.4 °F 27.5 °F 23.0 °F 56% 29.95 in 6.2 mi SSW 18.4 mph - N/A   Mostly Cloudy
4:00 PM 37 °F - 23 °F 44% 29.98 in 16 mi SSW 17.9 mph - -   Light Ice Pellets
4:20 PM 37.4 °F 28.2 °F 23.0 °F 56% 29.95 in 6.2 mi SSW 16.1 mph - N/A   Mostly Cloudy
4:50 PM 37.4 °F 28.9 °F 23.0 °F 56% 29.92 in 6.2 mi SSW 13.8 mph - N/A   Mostly Cloudy
5:20 PM 37.4 °F 29.3 °F 23.0 °F 56% 29.92 in 6.2 mi SSW 12.7 mph - N/A   Mostly Cloudy
5:50 PM 37.4 °F 29.8 °F 24.8 °F 60% 29.92 in 6.2 mi South 11.5 mph - N/A   Mostly Cloudy
6:20 PM 37.4 °F 29.3 °F 24.8 °F 60% 29.92 in 6.2 mi South 12.7 mph - N/A   Scattered Clouds
6:50 PM 35.6 °F 27.1 °F 24.8 °F 65% 29.92 in 6.2 mi South 12.7 mph - N/A   Scattered Clouds
7:00 PM 36 °F - 24 °F 51% 29.97 in 14 mi South 13.4 mph - -   Partly Cloudy
7:20 PM 35.6 °F 27.5 °F 24.8 °F 65% 29.92 in 6.2 mi South 11.5 mph - N/A   Scattered Clouds
7:50 PM 35.6 °F 26.6 °F 24.8 °F 65% 29.92 in - South 13.8 mph - N/A   Clear
8:20 PM 35.6 °F 25.9 °F 24.8 °F 65% 29.92 in 6.2 mi South 16.1 mph - N/A   Partly Cloudy
8:50 PM 35.6 °F 26.2 °F 24.8 °F 65% 29.92 in 6.2 mi South 15.0 mph - N/A   Partly Cloudy
9:20 PM 35.6 °F 25.9 °F 26.6 °F 70% 29.92 in 6.2 mi South 16.1 mph - N/A   Partly Cloudy
9:50 PM 35.6 °F 25.9 °F 26.6 °F 70% 29.92 in 6.2 mi South 16.1 mph - N/A   Partly Cloudy
10:00 PM 35 °F - 26 °F 60% 29.95 in 12 mi South 15.7 mph - -   Mostly Cloudy
10:20 PM 35.6 °F 26.2 °F 26.6 °F 70% 29.92 in 6.2 mi South 15.0 mph - N/A   Partly Cloudy
10:50 PM 35.6 °F 25.9 °F 24.8 °F 65% 29.89 in - South 16.1 mph - N/A   Clear
11:20 PM 35.6 °F 25.5 °F 24.8 °F 65% 29.89 in 6.2 mi South 17.3 mph - N/A   Scattered Clouds
11:50 PM 35.6 °F 25.9 °F 24.8 °F 65% 29.89 in 6.2 mi South 16.1 mph - N/A   Scattered Clouds